Weather History for Tampa Executive, FL

Change the Weather History Date:

Wednesday, May 2, 2012

  Actual Average (KTPA) Record (KTPA)
Temperature  
Mean Temperature 80 °F 75 °F  
Max Temperature 93 °F 85 °F 97 °F (1990)
Min Temperature 66 °F 66 °F 52 °F (1999)
Degree Days  
Heating Degree Days 0 0  
Month to date heating degree days 0  
Since 1 July heating degree days 538  
Cooling Degree Days 14 11  
Month to date cooling degree days 21  
Year to date cooling degree days 481  
Growing Degree Days 30 (Base 50)    
Moisture  
Dew Point 64 °F    
Average Humidity 62    
Maximum Humidity 94    
Minimum Humidity 36    
Precipitation  
Precipitation 0.00 in 0.05 in 3.11 in (2014)
Month to date precipitation 0.10  
Year to date precipitation 10.20  
Sea Level Pressure  
Sea Level Pressure 30.07 in    
Wind  
Wind Speed 6 mph (ESE)    
Max Wind Speed 13 mph    
Max Gust Speed 22 mph    
Visibility 9 miles    
Events      
T = Trace of Precipitation, MM = Missing Value Source: NWS Daily Summary

Daily Weather History Graph

Daily Weather History Graph

Search for Another Location

Airport:

Trip Planner

Search our weather history database for the weather conditions in past years. The results will help you decide how hot, cold, wet, or windy it might be!

Date:

Astronomy

May. 02, 2012 Rise Set
Actual Time 6:48 AM EDT 8:04 PM EDT
Civil Twilight 6:23 AM EDT 8:29 PM EDT
Nautical Twilight 5:53 AM EDT 8:59 PM EDT
Astronomical Twilight 5:23 AM EDT 9:29 PM EDT
Moon 4:32 PM EDT 3:57 AM EDT
Length of Visible Light 14h 06m
Length of Day
13h 16m
Waxing Gibbous, 83% of the Moon is Illuminated
May 2
Waxing Gibbous
May 5
Full
May 12
Last Quarter
May 20
New
May 28
First Quarter

Hourly Weather History & Observations

Time (EDT) Temp. Heat Index Dew Point Humidity Pressure Visibility Wind Dir Wind Speed Gust Speed Precip Events Conditions
12:35 AM 73.4 °F - 64.4 °F 73% 30.10 in 10.0 mi East 4.6 mph - N/A   Clear
12:55 AM 73.4 °F - 64.4 °F 73% 30.10 in 10.0 mi East 4.6 mph - N/A   Clear
1:15 AM 73.4 °F - 66.2 °F 78% 30.09 in 10.0 mi East 4.6 mph - N/A   Clear
1:35 AM 73.4 °F - 66.2 °F 78% 30.09 in 10.0 mi ESE 4.6 mph - N/A   Clear
2:15 AM 71.6 °F - 66.2 °F 83% 30.07 in 10.0 mi East 4.6 mph - N/A   Clear
2:35 AM 71.6 °F - 66.2 °F 83% 30.06 in 10.0 mi East 3.5 mph - N/A   Clear
2:55 AM 69.8 °F - 64.4 °F 83% 30.06 in 10.0 mi East 4.6 mph - N/A   Clear
3:15 AM 69.8 °F - 64.4 °F 83% 30.06 in 10.0 mi Calm Calm - N/A   Clear
3:35 AM 69.8 °F - 64.4 °F 83% 30.05 in 10.0 mi East 3.5 mph - N/A   Clear
3:55 AM 69.8 °F - 64.4 °F 83% 30.05 in 10.0 mi East 4.6 mph - N/A   Clear
4:15 AM 68.0 °F - 64.4 °F 88% 30.05 in 10.0 mi East 3.5 mph - N/A   Clear
4:35 AM 68.0 °F - 64.4 °F 88% 30.05 in 10.0 mi East 3.5 mph - N/A   Clear
4:55 AM 68.0 °F - 64.4 °F 88% 30.05 in 7.0 mi East 3.5 mph - N/A   Clear
5:15 AM 68.0 °F - 64.4 °F 88% 30.05 in 7.0 mi Calm Calm - N/A   Clear
5:35 AM 68.0 °F - 64.4 °F 88% 30.05 in 7.0 mi East 4.6 mph - N/A   Clear
5:55 AM 68.0 °F - 64.4 °F 88% 30.05 in 7.0 mi ENE 3.5 mph - N/A   Clear
6:35 AM 66.2 °F - 62.6 °F 88% 30.06 in 7.0 mi ENE 3.5 mph - N/A   Clear
6:55 AM 66.2 °F - 64.4 °F 94% 30.06 in 5.0 mi ENE 3.5 mph - N/A   Clear
7:15 AM 66.2 °F - 64.4 °F 94% 30.08 in 5.0 mi East 3.5 mph - N/A   Clear
7:35 AM 66.2 °F - 64.4 °F 94% 30.08 in 5.0 mi East 3.5 mph - N/A   Clear
7:55 AM 68.0 °F - 64.4 °F 88% 30.09 in 5.0 mi East 3.5 mph - N/A   Clear
8:15 AM 68.0 °F - 64.4 °F 88% 30.09 in 7.0 mi Calm Calm - N/A   Clear
8:35 AM 69.8 °F - 66.2 °F 88% 30.09 in 7.0 mi East 8.1 mph - N/A   Clear
9:15 AM 77.0 °F - 68.0 °F 74% 30.10 in 10.0 mi ESE 10.4 mph - N/A   Scattered Clouds
9:35 AM 78.8 °F - 68.0 °F 69% 30.10 in 10.0 mi ESE 8.1 mph 17.3 mph N/A   Scattered Clouds
9:55 AM 78.8 °F - 68.0 °F 69% 30.11 in 10.0 mi ESE 10.4 mph - N/A   Mostly Cloudy
10:15 AM 78.8 °F - 68.0 °F 69% 30.11 in 10.0 mi SSE 11.5 mph 16.1 mph N/A   Mostly Cloudy
10:35 AM 80.6 °F 83.2 °F 68.0 °F 65% 30.10 in 10.0 mi SE 9.2 mph 17.3 mph N/A   Scattered Clouds
10:55 AM 82.4 °F 85.4 °F 68.0 °F 62% 30.11 in 10.0 mi SE 8.1 mph 16.1 mph N/A   Scattered Clouds
11:15 AM 84.2 °F 87.3 °F 68.0 °F 58% 30.11 in 10.0 mi ESE 9.2 mph - N/A   Scattered Clouds
11:35 AM 86.0 °F 89.4 °F 68.0 °F 55% 30.10 in 10.0 mi SE 10.4 mph - N/A   Scattered Clouds
12:15 PM 86.0 °F 87.3 °F 64.4 °F 48% 30.10 in 10.0 mi SE 8.1 mph 19.6 mph N/A   Scattered Clouds
12:35 PM 86.0 °F 87.3 °F 64.4 °F 48% 30.09 in 10.0 mi ESE 8.1 mph 18.4 mph N/A   Scattered Clouds
12:55 PM 87.8 °F 90.4 °F 66.2 °F 49% 30.09 in 10.0 mi SE 9.2 mph 16.1 mph N/A   Scattered Clouds
1:15 PM 89.6 °F 91.1 °F 64.4 °F 43% 30.09 in 10.0 mi SE 9.2 mph 17.3 mph N/A   Scattered Clouds
1:35 PM 89.6 °F 91.1 °F 64.4 °F 43% 30.08 in 10.0 mi East 8.1 mph - N/A   Scattered Clouds
1:55 PM 89.6 °F 90.1 °F 62.6 °F 40% 30.07 in 10.0 mi ESE 8.1 mph - N/A   Clear
2:15 PM 89.6 °F 91.1 °F 64.4 °F 43% 30.07 in 10.0 mi SE 8.1 mph - N/A   Scattered Clouds
2:35 PM 91.4 °F 92.1 °F 62.6 °F 38% 30.07 in 10.0 mi ESE 9.2 mph - N/A   Scattered Clouds
2:55 PM 91.4 °F 92.1 °F 62.6 °F 38% 30.06 in 10.0 mi SE 8.1 mph - N/A   Scattered Clouds
3:15 PM 91.4 °F 92.1 °F 62.6 °F 38% 30.05 in 10.0 mi ESE 4.6 mph - N/A   Scattered Clouds
3:35 PM 91.4 °F 92.1 °F 62.6 °F 38% 30.04 in 10.0 mi ESE 8.1 mph - N/A   Scattered Clouds
3:55 PM 89.6 °F 90.1 °F 62.6 °F 40% 30.04 in 10.0 mi ESE 6.9 mph - N/A   Clear
4:15 PM 91.4 °F 92.1 °F 62.6 °F 38% 30.03 in 10.0 mi ESE 8.1 mph - N/A   Scattered Clouds
4:35 PM 91.4 °F 92.1 °F 62.6 °F 38% 30.02 in 10.0 mi ESE 8.1 mph - N/A   Scattered Clouds
4:55 PM 91.4 °F 92.1 °F 62.6 °F 38% 30.02 in 10.0 mi SE 6.9 mph 17.3 mph N/A   Scattered Clouds
5:15 PM 93.2 °F 94.1 °F 62.6 °F 36% 30.01 in 10.0 mi East 9.2 mph - N/A   Scattered Clouds
5:35 PM 91.4 °F 92.1 °F 62.6 °F 38% 30.01 in 10.0 mi East 10.4 mph - N/A   Mostly Cloudy
5:55 PM 89.6 °F 90.1 °F 62.6 °F 40% 30.01 in 10.0 mi ENE 5.8 mph - N/A   Mostly Cloudy
6:15 PM 89.6 °F 90.1 °F 62.6 °F 40% 30.01 in 10.0 mi ESE 6.9 mph 17.3 mph N/A   Scattered Clouds
6:35 PM 87.8 °F 88.5 °F 62.6 °F 43% 30.01 in 10.0 mi East 8.1 mph - N/A   Scattered Clouds
7:15 PM 86.0 °F 87.3 °F 64.4 °F 48% 30.01 in 10.0 mi East 6.9 mph - N/A   Scattered Clouds
7:35 PM 86.0 °F 86.6 °F 62.6 °F 45% 30.02 in 10.0 mi ESE 10.4 mph 16.1 mph N/A   Scattered Clouds
7:55 PM 86.0 °F 86.6 °F 62.6 °F 45% 30.02 in 10.0 mi ESE 6.9 mph - N/A   Scattered Clouds
8:15 PM 86.0 °F 86.6 °F 62.6 °F 45% 30.04 in 10.0 mi ESE 6.9 mph - N/A   Scattered Clouds
8:35 PM 84.2 °F 85.0 °F 62.6 °F 48% 30.04 in 10.0 mi East 8.1 mph - N/A   Scattered Clouds
8:55 PM 82.4 °F 83.4 °F 62.6 °F 51% 30.04 in 10.0 mi East 10.4 mph 18.4 mph N/A   Clear
9:15 PM 82.4 °F 83.4 °F 62.6 °F 51% 30.06 in 10.0 mi East 11.5 mph 21.9 mph N/A   Clear
9:35 PM 80.6 °F 81.8 °F 62.6 °F 54% 30.07 in 10.0 mi East 12.7 mph 19.6 mph N/A   Clear
9:55 PM 80.6 °F 81.8 °F 62.6 °F 54% 30.08 in 10.0 mi East 8.1 mph 18.4 mph N/A   Clear
10:15 PM 78.8 °F - 62.6 °F 57% 30.09 in 10.0 mi ESE 6.9 mph 18.4 mph N/A   Clear
10:35 PM 78.8 °F - 62.6 °F 57% 30.09 in 10.0 mi East 10.4 mph 17.3 mph N/A   Clear
10:55 PM 78.8 °F - 64.4 °F 61% 30.10 in 10.0 mi ESE 5.8 mph 21.9 mph N/A   Clear
11:35 PM 77.0 °F - 64.4 °F 65% 30.11 in 10.0 mi ESE 8.1 mph - N/A   Clear
11:55 PM 77.0 °F - 64.4 °F 65% 30.11 in 10.0 mi ESE 8.1 mph - N/A   Clear